Weather History for North Wilkesboro, NC

Change the Weather History Date:

Saturday, December 8, 2012

  Actual Average Record
Temperature  
Mean Temperature 54 °F -  
Max Temperature 64 °F 53 °F 75 °F (1980)
Min Temperature 44 °F 26 °F 10 °F (1977)
Degree Days  
Heating Degree Days 11    
Growing Degree Days 4 (Base 50)    
Moisture  
Dew Point 46 °F    
Average Humidity 86    
Maximum Humidity 100    
Minimum Humidity 59    
Precipitation  
Precipitation 0.00 in - - ()
Sea Level Pressure  
Sea Level Pressure 30.05 in    
Wind  
Wind Speed 2 mph (South)    
Max Wind Speed 7 mph    
Max Gust Speed -    
Visibility 7 miles    
Events      
Averages and records for this station are not official NWS values.
T = Trace of Precipitation, MM = Missing Value Source: NWS Daily Summary

Daily Weather History Graph

Daily Weather History Graph

Search for Another Location

Airport:

Trip Planner

Search our weather history database for the weather conditions in past years. The results will help you decide how hot, cold, wet, or windy it might be!

Date:

Astronomy

Dec. 08, 2012 Rise Set
Actual Time 7:23 AM EST 5:09 PM EST
Civil Twilight 6:54 AM EST 5:38 PM EST
Nautical Twilight 6:22 AM EST 6:10 PM EST
Astronomical Twilight 5:51 AM EST 6:41 PM EST
Moon 1:54 AM EST (12/8) 1:32 PM EST (12/8)
Length of Visible Light 10h 43m
Length of Day
9h 46m
Waning Crescent, 28% of the Moon is Illuminated
Dec 8
Waning Crescent
Dec 13
New
Dec 20
First Quarter
Dec 28
Full
Jan 4
Last Quarter

Hourly Weather History & Observations

Time (EST) Temp. Windchill Dew Point Humidity Pressure Visibility Wind Dir Wind Speed Gust Speed Precip Events Conditions
12:15 AM 44.6 °F - 44.6 °F 100% 30.06 in 2.0 mi Calm Calm - N/A   Overcast
12:35 AM 44.6 °F - 44.6 °F 100% 30.05 in 2.0 mi Calm Calm - N/A   Overcast
12:55 AM 44.6 °F - 44.6 °F 100% 30.05 in 2.5 mi Calm Calm - N/A   Overcast
1:15 AM 44.6 °F - 44.6 °F 100% 30.05 in 3.0 mi Calm Calm - N/A   Overcast
1:35 AM 46.4 °F - 44.6 °F 93% 30.05 in 4.0 mi Calm Calm - N/A   Overcast
1:55 AM 46.4 °F 44.3 °F 44.6 °F 93% 30.04 in 5.0 mi SW 4.6 mph - N/A   Overcast
2:15 AM 46.4 °F 44.3 °F 44.6 °F 93% 30.03 in 5.0 mi SW 4.6 mph - N/A   Overcast
2:35 AM 46.4 °F 42.9 °F 44.6 °F 93% 30.04 in 5.0 mi WSW 6.9 mph - N/A   Overcast
2:55 AM 46.4 °F 42.9 °F 44.6 °F 93% 30.03 in 4.0 mi SW 6.9 mph - N/A   Overcast
3:15 AM 44.6 °F 41.4 °F 44.6 °F 100% 30.03 in 4.0 mi SW 5.8 mph - N/A   Overcast
3:35 AM 46.4 °F 44.3 °F 44.6 °F 93% 30.03 in 4.0 mi SW 4.6 mph - N/A   Overcast
3:55 AM 46.4 °F 44.3 °F 44.6 °F 93% 30.03 in 4.0 mi SSW 4.6 mph - N/A   Overcast
4:15 AM 46.4 °F - 44.6 °F 93% 30.03 in 4.0 mi Calm Calm - N/A   Overcast
4:35 AM 46.4 °F 43.5 °F 44.6 °F 93% 30.03 in 4.0 mi SW 5.8 mph - N/A   Overcast
4:55 AM 44.6 °F 43.1 °F 44.6 °F 100% 30.03 in 4.0 mi SSW 3.5 mph - N/A   Overcast
5:15 AM 46.4 °F - 44.6 °F 93% 30.03 in 4.0 mi Calm Calm - N/A   Overcast
5:35 AM 44.6 °F 42.2 °F 44.6 °F 100% 30.04 in 3.0 mi WSW 4.6 mph - N/A   Overcast
5:55 AM 44.6 °F 43.1 °F 44.6 °F 100% 30.04 in 3.0 mi SW 3.5 mph - N/A   Overcast
6:15 AM 44.6 °F - 44.6 °F 100% 30.04 in 3.0 mi Calm Calm - N/A   Overcast
6:35 AM 44.6 °F - 44.6 °F 100% 30.04 in 3.0 mi Calm Calm - N/A   Overcast
6:55 AM 44.6 °F - 44.6 °F 100% 30.05 in 3.0 mi Calm Calm - N/A   Overcast
7:15 AM 44.6 °F - 44.6 °F 100% 30.06 in 3.0 mi Calm Calm - N/A   Overcast
7:35 AM 44.6 °F - 44.6 °F 100% 30.06 in 2.0 mi Calm Calm - N/A   Overcast
7:55 AM 44.6 °F - 44.6 °F 100% 30.06 in 2.0 mi Calm Calm - N/A   Overcast
8:35 AM 46.4 °F - 44.6 °F 93% 30.06 in 2.0 mi Calm Calm - N/A   Overcast
8:55 AM 46.4 °F - 46.4 °F 100% 30.07 in 2.5 mi Calm Calm - N/A   Overcast
9:35 AM 46.4 °F - 44.6 °F 93% 30.08 in 5.0 mi Calm Calm - N/A   Overcast
9:55 AM 46.4 °F - 46.4 °F 100% 30.08 in 5.0 mi Calm Calm - N/A   Mostly Cloudy
10:15 AM 50.0 °F - 46.4 °F 87% 30.07 in 7.0 mi Calm Calm - N/A   Scattered Clouds
10:55 AM 51.8 °F - 46.4 °F 82% 30.07 in 10.0 mi Calm Calm - N/A   Scattered Clouds
11:15 AM 51.8 °F - 46.4 °F 82% 30.06 in 10.0 mi Calm Calm - N/A   Scattered Clouds
11:35 AM 53.6 °F - 46.4 °F 77% 30.06 in 10.0 mi Calm Calm - N/A   Scattered Clouds
11:55 AM 55.4 °F - 46.4 °F 72% 30.05 in 10.0 mi Calm Calm - N/A   Mostly Cloudy
12:15 PM 55.4 °F - 46.4 °F 72% 30.04 in 10.0 mi Calm Calm - N/A   Mostly Cloudy
12:35 PM 57.2 °F - 46.4 °F 67% 30.03 in 10.0 mi Calm Calm - N/A   Scattered Clouds
12:55 PM 59.0 °F - 48.2 °F 67% 30.03 in 10.0 mi Calm Calm - N/A   Scattered Clouds
1:15 PM 60.8 °F - 48.2 °F 63% 30.02 in 10.0 mi Calm Calm - N/A   Scattered Clouds
1:35 PM 62.6 °F - 50.0 °F 63% 30.02 in 10.0 mi Calm Calm - N/A   Clear
1:55 PM 62.6 °F - 48.2 °F 59% 30.01 in 10.0 mi SSE 5.8 mph - N/A   Clear
2:15 PM 62.6 °F - 50.0 °F 63% 30.00 in 10.0 mi SE 4.6 mph - N/A   Clear
2:35 PM 64.4 °F - 50.0 °F 59% 30.01 in 10.0 mi Calm Calm - N/A   Clear
2:55 PM 64.4 °F - 50.0 °F 59% 30.01 in 10.0 mi ESE 3.5 mph - N/A   Clear
3:15 PM 64.4 °F - 50.0 °F 59% 30.01 in 10.0 mi ESE 4.6 mph - N/A   Clear
3:35 PM 62.6 °F - 50.0 °F 63% 30.01 in 10.0 mi East 5.8 mph - N/A   Clear
3:55 PM 62.6 °F - 50.0 °F 63% 30.01 in 10.0 mi East 3.5 mph - N/A   Clear
4:15 PM 60.8 °F - 50.0 °F 68% 30.02 in 10.0 mi ESE 3.5 mph - N/A   Clear
4:35 PM 60.8 °F - 50.0 °F 68% 30.03 in 10.0 mi Calm Calm - N/A   Clear
4:55 PM 59.0 °F - 48.2 °F 67% 30.03 in 10.0 mi Calm Calm - N/A   Clear
5:15 PM 57.2 °F - 48.2 °F 72% 30.04 in 10.0 mi Calm Calm - N/A   Clear
5:35 PM 55.4 °F - 48.2 °F 77% 30.04 in 10.0 mi Calm Calm - N/A   Clear
5:55 PM 55.4 °F - 48.2 °F 77% 30.05 in 10.0 mi Calm Calm - N/A   Clear
6:15 PM 55.4 °F - 48.2 °F 77% 30.05 in 10.0 mi Calm Calm - N/A   Clear
6:35 PM 53.6 °F - 48.2 °F 82% 30.05 in 10.0 mi Calm Calm - N/A   Clear
6:55 PM 53.6 °F - 48.2 °F 82% 30.05 in 10.0 mi Calm Calm - N/A   Clear
7:15 PM 51.8 °F - 48.2 °F 88% 30.05 in 10.0 mi North 4.6 mph - N/A   Clear
7:35 PM 50.0 °F - 46.4 °F 87% 30.06 in 10.0 mi NNE 5.8 mph - N/A   Clear
7:55 PM 50.0 °F - 46.4 °F 87% 30.06 in 10.0 mi North 5.8 mph - N/A   Clear
8:15 PM 51.8 °F - 48.2 °F 88% 30.07 in 10.0 mi North 4.6 mph - N/A   Clear
9:15 PM 48.2 °F - 46.4 °F 93% 30.08 in 10.0 mi Calm Calm - N/A   Clear
9:35 PM 48.2 °F - 46.4 °F 93% 30.08 in 10.0 mi Calm Calm - N/A   Clear
9:55 PM 48.2 °F - 46.4 °F 93% 30.08 in 7.0 mi North 3.5 mph - N/A   Clear
10:15 PM 46.4 °F 45.2 °F 46.4 °F 100% 30.09 in 7.0 mi North 3.5 mph - N/A   Clear
10:55 PM 46.4 °F - 46.4 °F 100% 30.09 in 5.0 mi Calm Calm - N/A   Clear
11:35 PM 44.6 °F - 44.6 °F 100% 30.09 in 2.0 mi Calm Calm - N/A   Clear
11:55 PM 44.6 °F - 44.6 °F 100% 30.10 in 3.0 mi Calm Calm - N/A   Clear